User: anonymous
Location: Unspecified
(0.0000°N, 0.0000°E)
Time: 01:48:19
(UTC+00:00)
Language:

Vela 2A - Orbit

View from above orbital plane
View from above orbital plane
View from above satellite
View from above satellite

Ground track
Ground track

The orbit data is extracted from the following two-line orbital elements,

1 00836U 64040A   14108.73336826  .00000335  00000-0  00000+0 0  4796
2 00836 082.5916 328.2639 3452676 271.5996 000.0244 00.23926250 43461
Epoch (UTC): 18 April 2014 17:36:03
Eccentricity: 0.3452676
inclination: 82.5916°
perigee height: 65381 km
apogee height: 141064 km
right ascension of ascending node: 328.2639°
argument of perigee: 271.5996°
revolutions per day: 0.23926250
mean anomaly at epoch: 0.0244°
orbit number at epoch: 4346

The dashed part of the orbit path shows where the satellite is in the earth's shadow,  

DLR